User: anonymous   Login
Location: Unspecified
(0.0000°N, 0.0000°E)
Time: 12:43:25
(UTC+00:00)
Language:

Intelsat V F3 - Orbit

View from above orbital plane
View from above orbital plane
View from above satellite
View from above satellite

Ground track
Ground track

The orbit data is extracted from the following two-line orbital elements,

1 12994U 81119A   18200.23505406 -.00000348 +00000-0 +00000-0 0  9997
2 12994 014.7737 350.9117 0023350 175.2398 359.4361 00.99472000097952
Epoch (UTC): 19 July 2018 05:38:28
Eccentricity: 0.0023350
inclination: 14.7737°
perigee height: 35913 km
apogee height: 36111 km
right ascension of ascending node: 350.9117°
argument of perigee: 175.2398°
revolutions per day: 0.99472000
mean anomaly at epoch: 359.4361°
orbit number at epoch: 9795

The dashed part of the orbit path shows where the satellite is in the earth's shadow,  

DLR